Starlink 35342

operational
NORAD ID: 66182 Int'l Des: 2025-243 Owner: SPXS Country: US Constellation: starlink
LEOCIRCULAR

About Starlink 35342

Description loading...

Live Position

Loading 3D Globe...

Upcoming Passes

Altitude History

Altitude vs Time

uPlot chart will show altitude changes over time

Two-Line Element Set

1 66182U 25243F 25310.91106088 -.00371052 00000-0 -21637-2 0 9994
2 66182 53.1526 100.0091 0001662 44.1462 315.9692 15.78691350 1791
Epoch: Nov 6, 2025 • Age: 5 hours

Current Status

Altitude 335.5 km
Velocity 7.71 km/s
Sub-Earth Point 7.24°N, 179.73°E
Launch Date Oct 26, 2025
Age 11 days
Type internet

Technical Details

Classification Payload
Mass 575.00 kg
Dry Mass 530.00 kg
Total Mass 575.00 kg
Length 0.30 m
Diameter 4.10 m
Span 29.00 m
Shape Box + pan
Manufacturer SPXS
Bus Type Starlink V2MO
Phase Status In Orbit
Owner/State SPXS/US

Large Constellations

Loading constellations...